HAWK-11B (62379 NORAD) Tracking and Keplerian Element Data

This shows tracking and keplerian element data for the satellite.

Feedback or suggestion? Click here.




ElementValue
Catalog62379
NameHAWK-11B
Epoch Orbit695
Epoch Day35.24179464
Epoch Year2025
RAAN119.7304
Inclination45.0102
Eccentricity0.0003492
Argument of Perigee280.1687
Mean Anonmoly79.8799
Mean Motion15.19810817
Decay Rate0.00017528
L11 62379U 24247C 25035.24179464 .00017528 00000+0 81452-3 0 9993
L22 62379 45.0102 119.7304 0003492 280.1687 79.8799 15.19810817 6956



Live tracking and technical data element details for HAWK-11B (NORAD 62379). HAWK-11B can be tracked NOW for your location showing map with azimuth and elevation plus other details from your city location.







IsCatalogInMostPopularTable: catalog: 62379, numindb: 10
Update: records affected: 1



GetName: 62379 HAWK-11B

Hit Count: updated at: Sun, 18 May 2025 22:40:49 GMT